• In India
  • List of Countries
  • For 7 days
  • Water Temperature
  • Satellite Maps
  • Weather Map
  • Weather Widgets
  • user-avatar
    Login

    Hourly Weather Popivka

    Today, 20 August, Monday

    Time Temperature Precipitation Wind Pressure Humidity
    00:00 +17°C° 0 mm 2 mps 751 mmHg 48%
    01:00 +18°C° 0 mm 1 mps 751 mmHg 48%
    02:00 +16°C° 0 mm 1 mps 751 mmHg 48%
    03:00 +16°C° 0 mm 1 mps 751 mmHg 49%
    04:00 +16°C° 0 mm 1 mps 751 mmHg 50%
    05:00 +15°C° 0 mm 1 mps 751 mmHg 50%
    06:00 +19°C° 0 mm 1 mps 751 mmHg 46%
    07:00 +20°C° 0 mm 2 mps 751 mmHg 41%
    08:00 +23°C° 0 mm 2 mps 751 mmHg 36%
    09:00 +25°C° 0 mm 2 mps 751 mmHg 34%
    10:00 +26°C° 0 mm 2 mps 751 mmHg 31%
    11:00 +28°C° 0 mm 2 mps 751 mmHg 28%
    12:00 +28°C° 0 mm 2 mps 750 mmHg 27%
    13:00 +29°C° 0 mm 1 mps 750 mmHg 26%
    14:00 +29°C° 0 mm 1 mps 750 mmHg 25%
    15:00 +29°C° 0 mm 1 mps 749 mmHg 26%
    16:00 +29°C° 0 mm 1 mps 749 mmHg 27%
    17:00 +29°C° 0 mm 1 mps 749 mmHg 28%
    18:00 +26°C° 0 mm 1 mps 749 mmHg 31%
    19:00 +24°C° 0 mm 1 mps 749 mmHg 34%
    20:00 +22°C° 0 mm 1 mps 749 mmHg 37%
    21:00 +21°C° 0 mm 1 mps 749 mmHg 38%
    22:00 +21°C° 0 mm 1 mps 749 mmHg 39%
    23:00 +20°C° 0 mm 1 mps 749 mmHg 40%

    Tomorrow, 21 August, Tuesday

    Time Temperature Precipitation Wind Pressure Humidity
    00:00 +20°C° 0 mm 1 mps 749 mmHg 41%
    01:00 +19°C° 0 mm 1 mps 748 mmHg 41%
    02:00 +19°C° 0 mm 1 mps 748 mmHg 42%
    03:00 +18°C° 0 mm 1 mps 748 mmHg 43%
    04:00 +18°C° 0 mm 1 mps 748 mmHg 44%
    05:00 +18°C° 0 mm 1 mps 748 mmHg 45%
    06:00 +19°C° 0 mm 2 mps 748 mmHg 42%
    07:00 +23°C° 0 mm 2 mps 748 mmHg 38%
    08:00 +25°C° 0 mm 2 mps 748 mmHg 35%
    09:00 +27°C° 0 mm 2 mps 748 mmHg 31%
    10:00 +28°C° 0 mm 2 mps 748 mmHg 28%
    11:00 +30°C° 0 mm 2 mps 748 mmHg 25%
    12:00 +30°C° 0 mm 2 mps 748 mmHg 24%
    13:00 +31°C° 0 mm 2 mps 747 mmHg 23%
    14:00 +31°C° 0 mm 2 mps 747 mmHg 22%
    15:00 +31°C° 0 mm 2 mps 746 mmHg 24%
    16:00 +31°C° 0 mm 2 mps 746 mmHg 26%
    17:00 +30°C° 0 mm 2 mps 746 mmHg 28%
    18:00 +28°C° 0 mm 2 mps 746 mmHg 30%
    19:00 +26°C° 0 mm 2 mps 746 mmHg 32%
    20:00 +24°C° 0 mm 2 mps 746 mmHg 35%
    21:00 +23°C° 0 mm 2 mps 746 mmHg 36%
    22:00 +23°C° 0 mm 2 mps 746 mmHg 38%
    23:00 +21°C° 0 mm 2 mps 746 mmHg 40%

    Day after tomorrow, 22 August, Wednesday

    Time Temperature Precipitation Wind Pressure Humidity
    00:00 +21°C° 0 mm 2 mps 746 mmHg 46%
    01:00 +20°C° 0 mm 2 mps 746 mmHg 52%
    02:00 +20°C° 0 mm 2 mps 746 mmHg 59%
    03:00 +19°C° 0 mm 2 mps 746 mmHg 66%
    04:00 +19°C° 0 mm 3 mps 747 mmHg 74%
    05:00 +18°C° 0 mm 3 mps 747 mmHg 82%
    06:00 +20°C° 0 mm 4 mps 747 mmHg 75%
    07:00 +21°C° 0 mm 4 mps 748 mmHg 69%
    08:00 +23°C° 0 mm 5 mps 748 mmHg 62%
    09:00 +25°C° 0 mm 5 mps 748 mmHg 56%
    10:00 +26°C° 0 mm 5 mps 748 mmHg 49%
    11:00 +27°C° 0 mm 5 mps 749 mmHg 43%
    12:00 +27°C° 0 mm 5 mps 749 mmHg 41%
    13:00 +27°C° 0 mm 5 mps 749 mmHg 39%
    14:00 +27°C° 0 mm 6 mps 749 mmHg 37%
    15:00 +27°C° 0 mm 5 mps 749 mmHg 38%
    16:00 +26°C° 0 mm 5 mps 749 mmHg 39%
    17:00 +25°C° 0 mm 5 mps 749 mmHg 39%
    18:00 +22°C° 0 mm 5 mps 750 mmHg 44%
    19:00 +20°C° 0 mm 4 mps 750 mmHg 48%
    20:00 +18°C° 0 mm 4 mps 751 mmHg 52%
    21:00 +17°C° 0 mm 3 mps 751 mmHg 54%
    22:00 +17°C° 0 mm 3 mps 751 mmHg 56%
    23:00 +16°C° 0 mm 3 mps 752 mmHg 58%

    23 August, Thursday

    Time Temperature Precipitation Wind Pressure Humidity
    00:00 +14°C° 0 mm 3 mps 752 mmHg 59%
    01:00 +14°C° 0 mm 3 mps 752 mmHg 61%
    02:00 +13°C° 0 mm 3 mps 752 mmHg 62%
    03:00 +13°C° 0 mm 3 mps 752 mmHg 64%
    04:00 +12°C° 0 mm 3 mps 753 mmHg 66%
    05:00 +12°C° 0 mm 3 mps 753 mmHg 68%
    06:00 +14°C° 0 mm 3 mps 753 mmHg 61%
    07:00 +17°C° 0 mm 4 mps 753 mmHg 54%
    08:00 +19°C° 0 mm 4 mps 753 mmHg 47%
    09:00 +21°C° 0 mm 4 mps 753 mmHg 42%
    10:00 +22°C° 0 mm 4 mps 753 mmHg 37%
    11:00 +23°C° 0 mm 4 mps 753 mmHg 33%
    12:00 +25°C° 0 mm 4 mps 753 mmHg 31%
    13:00 +26°C° 0 mm 4 mps 752 mmHg 30%
    14:00 +26°C° 0 mm 4 mps 752 mmHg 28%
    15:00 +26°C° 0 mm 4 mps 752 mmHg 30%
    16:00 +25°C° 0 mm 4 mps 752 mmHg 32%
    17:00 +25°C° 0 mm 4 mps 752 mmHg 34%
    18:00 +22°C° 0 mm 4 mps 752 mmHg 38%
    19:00 +20°C° 0 mm 4 mps 752 mmHg 43%
    20:00 +18°C° 0 mm 4 mps 752 mmHg 47%
    21:00 +17°C° 0 mm 4 mps 752 mmHg 48%
    22:00 +16°C° 0 mm 3 mps 752 mmHg 49%
    23:00 +16°C° 0 mm 3 mps 752 mmHg 50%

    24 August, Friday

    Time Temperature Precipitation Wind Pressure Humidity
    00:00 +14°C° 0 mm 3 mps 752 mmHg 52%
    01:00 +14°C° 0 mm 3 mps 752 mmHg 54%
    02:00 +13°C° 0 mm 3 mps 752 mmHg 55%
    03:00 +13°C° 0 mm 3 mps 752 mmHg 57%
    04:00 +12°C° 0 mm 3 mps 752 mmHg 58%
    05:00 +12°C° 0 mm 3 mps 752 mmHg 60%
    06:00 +14°C° 0 mm 4 mps 752 mmHg 55%
    07:00 +18°C° 0 mm 4 mps 752 mmHg 49%
    08:00 +20°C° 0 mm 5 mps 752 mmHg 44%
    09:00 +22°C° 0 mm 5 mps 752 mmHg 39%
    10:00 +25°C° 0 mm 5 mps 752 mmHg 34%
    11:00 +27°C° 0 mm 5 mps 751 mmHg 30%
    12:00 +27°C° 0 mm 5 mps 751 mmHg 28%
    13:00 +28°C° 0 mm 5 mps 751 mmHg 27%
    14:00 +29°C° 0 mm 4 mps 750 mmHg 25%
    15:00 +28°C° 0 mm 4 mps 750 mmHg 27%
    16:00 +28°C° 0 mm 4 mps 750 mmHg 28%
    17:00 +27°C° 0 mm 4 mps 750 mmHg 30%
    18:00 +25°C° 0 mm 4 mps 750 mmHg 33%
    19:00 +22°C° 0 mm 4 mps 750 mmHg 37%
    20:00 +20°C° 0 mm 4 mps 750 mmHg 40%
    21:00 +19°C° 0 mm 4 mps 750 mmHg 41%
    22:00 +18°C° 0 mm 4 mps 750 mmHg 42%
    23:00 +18°C° 0 mm 4 mps 750 mmHg 43%

    25 August, Saturday

    Time Temperature Precipitation Wind Pressure Humidity
    00:00 +17°C° 0 mm 4 mps 750 mmHg 44%
    01:00 +15°C° 0 mm 4 mps 750 mmHg 45%
    02:00 +15°C° 0 mm 4 mps 750 mmHg 47%
    03:00 +14°C° 0 mm 4 mps 750 mmHg 47%
    04:00 +14°C° 0 mm 4 mps 750 mmHg 48%
    05:00 +13°C° 0 mm 4 mps 750 mmHg 49%
    06:00 +17°C° 0 mm 4 mps 750 mmHg 45%
    07:00 +19°C° 0 mm 4 mps 750 mmHg 40%
    08:00 +21°C° 0 mm 5 mps 750 mmHg 36%
    09:00 +23°C° 0 mm 5 mps 749 mmHg 33%
    10:00 +26°C° 0 mm 5 mps 749 mmHg 29%
    11:00 +28°C° 0 mm 5 mps 749 mmHg 26%
    12:00 +29°C° 0 mm 5 mps 749 mmHg 25%
    13:00 +30°C° 0 mm 4 mps 748 mmHg 24%
    14:00 +30°C° 0 mm 4 mps 748 mmHg 23%
    15:00 +30°C° 0 mm 4 mps 748 mmHg 24%
    16:00 +29°C° 0 mm 4 mps 748 mmHg 26%
    17:00 +29°C° 0 mm 3 mps 748 mmHg 27%
    18:00 +26°C° 0 mm 3 mps 748 mmHg 29%
    19:00 +23°C° 0 mm 4 mps 748 mmHg 32%
    20:00 +21°C° 0 mm 4 mps 748 mmHg 34%
    21:00 +20°C° 0 mm 3 mps 748 mmHg 35%
    22:00 +19°C° 0 mm 3 mps 748 mmHg 36%
    23:00 +18°C° 0 mm 3 mps 748 mmHg 37%
    Show more